GFSMW_500_temp_225.txt.gz
Temp
-10 -10 -10 -10 -10 -10 -10 -10 -10 -10 -10 -10 -10 -10 -10 -10 -11 -11 -12 -12 -12 -12 -12 -13 -13 -13 -14 -14 -14 -14 -15 -15 -15 -15 -15 -15 -15 -15 -16 -16 -17 -17 -17
-10 -10 -10 -10 -10 -10 -10 -10 -10 -10 -10 -10 -10 -10 -10 -11 -11 -12 -12 -12 -12 -12 -12 -13 -13 -14 -14 -14 -14 -14 -15 -15 -15 -15 -16 -16 -15 -15 -17 -18 -17 -17 -16
-10 -10 -10 -10 -10 -10 -10 -10 -10 -10 -10 -10 -10 -11 -11 -11 -12 -12 -12 -12 -12 -12 -13 -13 -14 -14 -14 -14 -14 -15 -15 -15 -15 -16 -16 -16 -16 -16 -17 -18 -18 -18 -17
-9 -10 -10 -10 -10 -10 -10 -10 -10 -10 -10 -11 -11 -11 -11 -12 -12 -12 -12 -12 -12 -13 -13 -14 -14 -15 -15 -15 -15 -15 -15 -15 -16 -16 -17 -17 -17 -17 -17 -18 -19 -19 -18
-9 -9 -9 -9 -10 -10 -10 -10 -10 -10 -10 -11 -11 -12 -12 -12 -12 -12 -12 -13 -13 -14 -14 -14 -14 -15 -15 -15 -15 -16 -16 -17 -17 -18 -18 -18 -18 -18 -18 -18 -18 -19 -19
-9 -9 -9 -9 -10 -10 -10 -10 -10 -10 -11 -11 -12 -12 -12 -12 -13 -13 -13 -14 -14 -15 -14 -14 -15 -15 -15 -15 -16 -16 -17 -18 -18 -18 -18 -18 -18 -18 -18 -18 -18 -18 -18
-9 -9 -9 -9 -10 -10 -10 -10 -10 -10 -11 -11 -11 -12 -12 -12 -13 -13 -13 -14 -15 -15 -15 -16 -15 -15 -16 -16 -17 -18 -19 -19 -19 -19 -19 -19 -19 -18 -18 -18 -18 -18 -19
-9 -9 -10 -10 -10 -10 -10 -11 -11 -11 -11 -11 -12 -12 -12 -12 -13 -13 -14 -15 -15 -16 -15 -15 -16 -16 -16 -17 -18 -19 -19 -19 -19 -19 -19 -19 -19 -19 -19 -19 -18 -18 -18
-10 -10 -10 -10 -10 -11 -11 -11 -11 -11 -12 -12 -12 -12 -13 -13 -14 -14 -15 -15 -15 -16 -16 -16 -16 -17 -17 -18 -18 -19 -19 -20 -20 -20 -20 -20 -19 -19 -19 -19 -19 -19 -19
-11 -10 -11 -11 -11 -11 -11 -11 -12 -12 -12 -12 -12 -13 -14 -14 -14 -14 -15 -15 -15 -16 -16 -16 -17 -17 -18 -18 -19 -20 -20 -20 -20 -20 -20 -20 -20 -20 -20 -20 -19 -20 -19
-11 -11 -11 -10 -11 -11 -12 -12 -12 -12 -12 -13 -13 -13 -14 -14 -14 -14 -14 -14 -15 -15 -15 -16 -17 -17 -18 -19 -20 -20 -20 -20 -20 -20 -21 -22 -24 -25 -25 -24 -24 -23 -22
-10 -10 -10 -10 -11 -11 -12 -12 -12 -12 -13 -13 -13 -13 -13 -14 -14 -14 -15 -16 -16 -16 -16 -16 -17 -18 -19 -20 -20 -20 -20 -21 -21 -23 -24 -25 -25 -25 -25 -24 -24 -23 -23
-11 -11 -11 -12 -11 -12 -12 -12 -12 -12 -12 -12 -13 -13 -13 -14 -15 -15 -15 -16 -16 -16 -17 -17 -18 -19 -20 -20 -20 -20 -21 -23 -25 -25 -25 -25 -25 -25 -24 -24 -23 -23 -23
-11 -11 -12 -12 -12 -12 -12 -12 -12 -13 -12 -13 -13 -14 -15 -15 -15 -16 -16 -15 -16 -16 -17 -18 -20 -20 -20 -21 -21 -22 -25 -25 -25 -25 -25 -25 -24 -24 -24 -23 -23 -23 -23
-12 -12 -13 -13 -13 -12 -12 -12 -12 -13 -13 -14 -15 -15 -16 -16 -16 -16 -16 -16 -17 -18 -19 -19 -20 -20 -20 -21 -23 -25 -25 -25 -24 -25 -25 -25 -25 -24 -24 -23 -23 -23 -23
-13 -13 -13 -13 -13 -13 -13 -13 -14 -14 -14 -14 -15 -16 -16 -16 -16 -16 -16 -18 -18 -19 -20 -20 -20 -20 -20 -23 -25 -25 -25 -25 -25 -25 -25 -24 -24 -24 -24 -23 -23 -23 -23
-13 -13 -14 -14 -14 -14 -14 -14 -14 -15 -15 -15 -16 -16 -17 -16 -17 -17 -18 -19 -20 -20 -20 -20 -20 -20 -21 -25 -26 -26 -25 -25 -25 -25 -25 -24 -25 -24 -24 -23 -23 -23 -23
-14 -14 -14 -14 -14 -14 -14 -14 -15 -15 -16 -16 -17 -17 -17 -17 -18 -18 -19 -20 -20 -21 -20 -21 -21 -22 -24 -26 -26 -25 -25 -25 -25 -25 -24 -24 -24 -24 -24 -23 -23 -24 -24
-14 -14 -15 -15 -15 -14 -15 -15 -16 -16 -17 -17 -17 -17 -18 -18 -18 -19 -20 -21 -21 -21 -21 -21 -22 -25 -26 -26 -25 -25 -25 -25 -25 -25 -24 -24 -24 -24 -24 -24 -23 -24 -24
-14 -15 -15 -15 -15 -15 -16 -16 -17 -17 -17 -18 -18 -18 -18 -18 -19 -20 -21 -22 -21 -21 -22 -24 -25 -25 -26 -25 -25 -25 -25 -25 -25 -25 -24 -24 -24 -24 -24 -24 -24 -24 -24
-15 -15 -15 -15 -16 -16 -17 -17 -17 -18 -18 -18 -18 -18 -19 -20 -20 -21 -22 -22 -22 -23 -24 -25 -25 -25 -25 -25 -25 -25 -25 -25 -25 -25 -25 -24 -24 -24 -24 -24 -24 -24 -24
-15 -15 -15 -16 -17 -17 -17 -18 -18 -18 -19 -19 -19 -19 -20 -21 -21 -22 -22 -22 -22 -24 -26 -26 -25 -25 -25 -25 -25 -25 -24 -24 -25 -25 -25 -25 -24 -24 -24 -24 -24 -24 -24
-16 -16 -16 -16 -17 -17 -18 -18 -18 -19 -19 -20 -20 -21 -21 -21 -21 -22 -22 -23 -25 -25 -26 -26 -25 -25 -25 -25 -25 -25 -25 -25 -25 -25 -25 -25 -24 -24 -24 -24 -25 -24 -24
-17 -17 -17 -17 -18 -18 -18 -18 -19 -19 -20 -21 -21 -21 -22 -22 -22 -22 -23 -25 -26 -26 -26 -26 -25 -25 -25 -25 -25 -25 -25 -25 -25 -25 -26 -25 -25 -24 -24 -24 -25 -25 -24
-17 -18 -18 -18 -18 -19 -19 -19 -20 -20 -21 -21 -22 -22 -22 -22 -22 -23 -25 -26 -27 -27 -26 -25 -25 -25 -25 -25 -25 -25 -25 -25 -25 -25 -25 -25 -25 -25 -25 -25 -25 -25 -25
-18 -19 -19 -19 -19 -20 -20 -20 -20 -21 -22 -22 -23 -23 -23 -23 -24 -25 -26 -27 -27 -27 -26 -26 -26 -25 -25 -25 -25 -25 -25 -25 -25 -25 -25 -25 -25 -25 -25 -25 -25 -25 -25

GFSMW_500_temp_228.txt.gz
Temp
-10 -10 -10 -10 -10 -9 -9 -9 -9 -9 -9 -10 -10 -10 -10 -11 -11 -11 -11 -11 -11 -11 -12 -12 -12 -12 -13 -14 -13 -14 -14 -14 -14 -14 -15 -15 -15 -15 -15 -15 -15 -15 -15
-10 -10 -10 -10 -10 -10 -10 -9 -10 -10 -10 -10 -10 -10 -11 -11 -11 -11 -11 -12 -12 -12 -12 -12 -12 -12 -13 -14 -14 -14 -14 -14 -14 -15 -15 -15 -15 -16 -16 -16 -16 -16 -16
-10 -10 -10 -10 -10 -10 -10 -10 -10 -9 -10 -10 -10 -10 -11 -11 -11 -11 -12 -12 -12 -13 -13 -12 -12 -13 -13 -14 -15 -14 -14 -15 -15 -15 -15 -15 -15 -16 -16 -16 -17 -17 -16
-11 -10 -10 -10 -10 -10 -10 -10 -10 -10 -10 -10 -11 -11 -11 -11 -12 -12 -12 -12 -13 -13 -12 -13 -13 -13 -14 -15 -15 -15 -15 -15 -15 -15 -16 -16 -16 -16 -16 -17 -17 -18 -17
-10 -10 -10 -10 -10 -10 -10 -10 -10 -10 -11 -11 -12 -12 -12 -12 -13 -12 -13 -13 -13 -13 -13 -13 -13 -14 -15 -15 -16 -16 -16 -16 -16 -16 -16 -17 -17 -17 -17 -17 -17 -18 -18
-10 -10 -10 -10 -10 -10 -10 -10 -10 -11 -11 -11 -11 -12 -12 -12 -12 -12 -13 -13 -13 -13 -13 -14 -14 -14 -15 -16 -15 -16 -16 -16 -17 -17 -18 -18 -18 -18 -18 -18 -18 -17 -18
-10 -10 -10 -10 -10 -10 -10 -10 -10 -11 -11 -11 -12 -12 -12 -13 -13 -12 -13 -13 -13 -13 -14 -14 -15 -16 -16 -16 -16 -16 -16 -17 -17 -18 -19 -19 -19 -19 -19 -19 -18 -18 -18
-10 -10 -10 -10 -10 -10 -10 -10 -11 -11 -11 -11 -11 -12 -12 -12 -12 -12 -13 -13 -14 -14 -15 -15 -15 -16 -16 -16 -16 -17 -18 -18 -18 -19 -19 -20 -20 -20 -20 -20 -19 -19 -19
-10 -10 -10 -10 -10 -10 -10 -10 -11 -11 -11 -11 -11 -12 -12 -12 -12 -13 -13 -14 -14 -15 -15 -15 -15 -16 -16 -16 -17 -18 -18 -19 -20 -20 -20 -20 -20 -20 -20 -20 -20 -20 -19
-10 -10 -10 -10 -10 -10 -11 -11 -11 -11 -12 -12 -12 -12 -12 -12 -13 -13 -15 -15 -15 -15 -15 -15 -15 -16 -16 -16 -17 -18 -19 -19 -20 -20 -20 -20 -20 -20 -21 -22 -22 -22 -22
-10 -10 -10 -10 -10 -10 -10 -11 -11 -11 -12 -12 -12 -12 -12 -13 -14 -15 -15 -15 -15 -15 -15 -16 -16 -15 -16 -17 -17 -18 -19 -20 -20 -20 -20 -20 -21 -22 -24 -25 -25 -25 -25
-10 -10 -10 -10 -10 -11 -11 -11 -12 -12 -12 -12 -12 -12 -12 -13 -14 -14 -14 -14 -15 -15 -16 -16 -16 -16 -16 -17 -18 -19 -19 -20 -20 -20 -20 -23 -25 -25 -25 -25 -25 -25 -25
-10 -10 -10 -10 -11 -11 -11 -11 -11 -11 -12 -12 -12 -12 -13 -14 -14 -14 -14 -14 -15 -16 -16 -16 -16 -17 -18 -18 -19 -20 -20 -20 -20 -21 -24 -25 -25 -25 -25 -25 -25 -24 -24
-10 -10 -10 -10 -10 -11 -12 -12 -12 -12 -13 -13 -13 -13 -13 -13 -14 -14 -14 -15 -16 -16 -16 -16 -17 -17 -18 -19 -19 -20 -20 -20 -22 -24 -25 -25 -25 -25 -25 -25 -24 -24 -24
-10 -10 -10 -10 -11 -11 -11 -12 -13 -13 -13 -13 -13 -13 -13 -13 -14 -14 -15 -16 -16 -16 -16 -16 -17 -18 -19 -19 -20 -20 -20 -21 -25 -25 -25 -25 -25 -25 -24 -24 -24 -24 -23
-11 -11 -11 -11 -11 -12 -12 -13 -13 -13 -13 -13 -13 -13 -14 -15 -15 -15 -16 -17 -17 -17 -17 -17 -18 -19 -20 -21 -20 -20 -20 -24 -25 -25 -25 -25 -25 -25 -24 -24 -24 -24 -23
-12 -11 -11 -12 -12 -12 -13 -13 -14 -14 -14 -14 -14 -14 -15 -15 -16 -16 -17 -17 -17 -17 -17 -18 -19 -20 -21 -20 -20 -21 -23 -26 -25 -25 -25 -25 -25 -24 -24 -24 -24 -24 -23
-11 -12 -12 -13 -13 -13 -13 -14 -14 -15 -14 -14 -15 -15 -15 -16 -16 -17 -17 -17 -17 -18 -18 -19 -20 -21 -21 -21 -23 -24 -25 -26 -25 -25 -25 -25 -25 -24 -24 -24 -24 -24 -24
-12 -13 -13 -13 -13 -13 -13 -14 -15 -15 -15 -15 -15 -16 -16 -16 -17 -17 -17 -18 -18 -18 -19 -20 -21 -21 -21 -23 -25 -25 -25 -25 -25 -25 -25 -25 -24 -24 -24 -24 -24 -24 -24
-13 -14 -14 -14 -14 -14 -14 -15 -15 -15 -15 -15 -16 -16 -17 -17 -17 -18 -18 -18 -19 -20 -20 -21 -21 -21 -23 -25 -25 -25 -25 -25 -25 -25 -25 -25 -24 -24 -24 -24 -24 -24 -24
-13 -14 -14 -15 -15 -15 -15 -16 -16 -16 -16 -17 -17 -17 -18 -18 -18 -18 -19 -19 -20 -21 -21 -21 -21 -23 -25 -25 -25 -25 -25 -25 -25 -25 -24 -24 -24 -24 -24 -24 -24 -24 -24
-14 -14 -14 -15 -15 -16 -16 -17 -17 -17 -17 -17 -17 -18 -18 -18 -19 -19 -20 -20 -21 -22 -21 -21 -23 -25 -25 -25 -25 -25 -25 -25 -24 -24 -24 -24 -24 -24 -24 -24 -24 -24 -24
-15 -15 -15 -15 -16 -16 -17 -17 -17 -17 -18 -18 -18 -19 -19 -19 -20 -20 -20 -22 -22 -22 -22 -23 -24 -26 -26 -26 -25 -25 -25 -25 -24 -24 -25 -25 -24 -24 -24 -24 -24 -24 -24
-16 -16 -16 -16 -17 -17 -18 -18 -18 -18 -18 -19 -19 -19 -19 -20 -21 -21 -22 -22 -22 -22 -23 -25 -26 -26 -26 -25 -25 -25 -25 -25 -25 -25 -25 -25 -25 -25 -25 -25 -25 -25 -24
-17 -17 -17 -18 -18 -18 -18 -19 -19 -19 -19 -20 -20 -20 -21 -21 -22 -23 -23 -23 -23 -24 -25 -26 -26 -26 -26 -26 -25 -25 -25 -25 -25 -25 -25 -25 -25 -25 -25 -25 -25 -25 -25
-18 -18 -19 -19 -19 -19 -19 -19 -19 -19 -20 -20 -21 -21 -22 -23 -23 -23 -23 -23 -25 -25 -26 -27 -27 -26 -26 -26 -25 -25 -25 -25 -25 -25 -25 -25 -25 -25 -25 -25 -25 -25 -25

GFSMW_500_temp_234.txt.gz
Temp
-9 -9 -9 -10 -10 -10 -9 -9 -9 -9 -9 -9 -9 -9 -10 -10 -10 -10 -10 -10 -11 -11 -11 -11 -11 -11 -12 -11 -12 -12 -13 -13 -13 -13 -13 -14 -14 -14 -14 -15 -16 -15 -16
-10 -10 -9 -9 -10 -10 -9 -9 -9 -9 -10 -9 -10 -10 -10 -10 -10 -10 -10 -11 -11 -11 -11 -11 -11 -11 -12 -12 -12 -13 -13 -13 -14 -14 -14 -13 -14 -14 -15 -16 -16 -16 -16
-10 -9 -9 -9 -9 -9 -9 -9 -9 -9 -10 -10 -10 -10 -9 -10 -10 -10 -10 -10 -11 -11 -11 -12 -12 -12 -12 -13 -13 -13 -14 -14 -14 -14 -15 -14 -14 -14 -15 -15 -16 -16 -16
-10 -10 -10 -10 -10 -10 -10 -10 -10 -9 -9 -10 -10 -10 -9 -10 -10 -10 -10 -11 -11 -11 -12 -12 -12 -13 -13 -13 -14 -14 -14 -15 -15 -15 -16 -16 -15 -15 -15 -16 -15 -15 -16
-10 -10 -10 -10 -10 -10 -10 -10 -9 -9 -8 -9 -9 -9 -9 -10 -10 -10 -11 -11 -11 -12 -12 -12 -13 -13 -14 -14 -15 -14 -14 -15 -15 -16 -16 -16 -16 -17 -16 -15 -16 -16 -16
-10 -10 -9 -10 -9 -9 -9 -9 -9 -9 -9 -9 -9 -10 -10 -10 -10 -10 -11 -11 -11 -12 -12 -13 -13 -13 -14 -15 -14 -15 -15 -15 -16 -16 -16 -17 -17 -16 -16 -16 -17 -17 -17
-10 -9 -9 -9 -9 -9 -9 -9 -9 -9 -10 -10 -10 -10 -10 -10 -10 -10 -11 -11 -12 -12 -12 -13 -14 -14 -14 -15 -14 -15 -15 -16 -16 -17 -17 -17 -17 -17 -17 -17 -18 -18 -18
-10 -10 -9 -9 -9 -9 -9 -9 -10 -10 -10 -10 -10 -10 -10 -10 -10 -11 -11 -12 -12 -12 -13 -13 -14 -14 -14 -15 -15 -15 -16 -16 -16 -17 -17 -17 -17 -17 -17 -18 -19 -19 -20
-10 -10 -10 -10 -10 -9 -9 -10 -10 -10 -10 -10 -10 -10 -10 -11 -11 -11 -11 -12 -12 -12 -13 -14 -14 -14 -15 -15 -16 -16 -16 -16 -17 -17 -17 -17 -17 -18 -18 -19 -20 -21 -21
-10 -10 -10 -10 -10 -10 -10 -10 -10 -10 -10 -10 -10 -11 -11 -11 -11 -11 -11 -12 -12 -13 -14 -14 -15 -15 -15 -16 -16 -16 -16 -16 -17 -17 -18 -17 -18 -19 -19 -19 -20 -21 -21
-10 -10 -10 -9 -9 -9 -10 -10 -10 -10 -10 -11 -11 -11 -11 -10 -11 -11 -12 -12 -13 -14 -14 -15 -15 -16 -16 -16 -16 -16 -17 -17 -17 -17 -17 -17 -18 -19 -19 -20 -21 -21 -23
-10 -9 -9 -9 -10 -9 -10 -10 -10 -11 -11 -10 -11 -10 -11 -11 -12 -12 -13 -14 -14 -14 -15 -15 -16 -16 -16 -17 -16 -17 -17 -17 -17 -18 -18 -18 -19 -19 -20 -21 -22 -24 -25
-10 -9 -9 -9 -9 -9 -9 -10 -11 -10 -10 -10 -10 -11 -11 -12 -12 -13 -13 -14 -14 -15 -15 -15 -15 -16 -16 -16 -17 -17 -17 -17 -18 -18 -18 -19 -19 -20 -21 -23 -24 -25 -25
-10 -10 -10 -10 -9 -10 -10 -10 -10 -11 -10 -11 -10 -11 -11 -12 -12 -13 -14 -14 -14 -14 -15 -15 -16 -16 -16 -16 -17 -18 -17 -17 -18 -19 -19 -19 -20 -20 -21 -24 -25 -25 -25
-10 -10 -10 -10 -10 -10 -10 -11 -11 -11 -11 -11 -11 -11 -11 -12 -12 -13 -14 -14 -14 -15 -15 -15 -16 -16 -16 -17 -18 -18 -17 -18 -18 -19 -19 -20 -20 -21 -23 -25 -25 -25 -25
-10 -11 -11 -11 -11 -10 -10 -11 -11 -11 -11 -11 -12 -12 -12 -13 -13 -14 -14 -14 -14 -15 -16 -16 -16 -16 -17 -18 -18 -18 -18 -18 -19 -20 -20 -20 -21 -22 -25 -25 -25 -25 -25
-11 -11 -11 -11 -11 -11 -11 -11 -12 -12 -12 -12 -12 -13 -13 -14 -14 -14 -14 -14 -15 -16 -17 -17 -17 -17 -18 -18 -18 -18 -19 -19 -20 -20 -21 -21 -22 -25 -25 -25 -25 -25 -25
-12 -12 -12 -12 -11 -12 -12 -12 -12 -12 -12 -13 -13 -13 -13 -14 -14 -15 -15 -15 -16 -16 -17 -17 -18 -18 -18 -18 -18 -19 -19 -20 -20 -21 -22 -23 -24 -25 -24 -25 -25 -25 -24
-12 -12 -12 -12 -12 -12 -12 -12 -12 -12 -12 -13 -13 -14 -14 -15 -15 -15 -16 -16 -16 -17 -17 -17 -18 -18 -18 -18 -19 -19 -20 -20 -21 -22 -23 -24 -24 -24 -24 -25 -25 -24 -24
-12 -12 -12 -12 -12 -12 -12 -12 -12 -12 -13 -14 -15 -15 -15 -16 -16 -16 -16 -16 -17 -17 -18 -18 -18 -18 -19 -19 -20 -20 -20 -21 -22 -23 -24 -24 -24 -24 -24 -24 -24 -24 -24
-12 -12 -13 -13 -12 -12 -13 -13 -13 -14 -14 -15 -15 -15 -15 -16 -16 -16 -17 -17 -18 -18 -18 -18 -19 -19 -19 -20 -20 -21 -21 -22 -22 -24 -25 -25 -24 -24 -24 -24 -24 -24 -24
-13 -13 -13 -12 -12 -13 -13 -14 -15 -15 -15 -16 -16 -16 -16 -16 -17 -17 -17 -18 -18 -19 -19 -19 -19 -20 -20 -21 -21 -21 -22 -22 -23 -24 -25 -25 -25 -24 -24 -24 -24 -24 -24
-12 -13 -14 -13 -13 -14 -14 -14 -15 -16 -16 -16 -17 -17 -17 -17 -18 -18 -18 -19 -19 -19 -19 -20 -20 -21 -21 -21 -22 -22 -22 -23 -24 -25 -25 -25 -25 -25 -24 -24 -24 -24 -24
-14 -14 -14 -15 -15 -15 -15 -16 -16 -16 -16 -17 -17 -17 -18 -18 -18 -18 -19 -19 -19 -20 -20 -20 -21 -21 -22 -22 -22 -23 -23 -24 -25 -26 -25 -25 -25 -25 -24 -24 -24 -24 -24
-16 -16 -16 -16 -16 -16 -17 -17 -17 -18 -18 -17 -18 -18 -18 -19 -19 -19 -20 -20 -20 -20 -21 -21 -22 -22 -22 -22 -23 -23 -24 -25 -26 -26 -25 -25 -25 -25 -25 -25 -25 -25 -25
-17 -16 -17 -17 -16 -18 -18 -17 -18 -18 -19 -18 -18 -18 -19 -20 -20 -19 -20 -20 -21 -21 -21 -22 -23 -23 -23 -23 -24 -25 -25 -26 -26 -26 -26 -25 -25 -25 -25 -25 -25 -25 -25

GFSMW_500_temp_237.txt.gz
Temp
-10 -9 -9 -9 -9 -8 -8 -9 -10 -10 -9 -9 -9 -9 -9 -9 -9 -9 -9 -10 -10 -10 -10 -10 -10 -11 -11 -11 -11 -12 -12 -13 -13 -13 -13 -14 -14 -14 -14 -14 -14 -15 -15
-10 -9 -9 -9 -9 -9 -9 -9 -9 -10 -10 -10 -9 -9 -10 -9 -9 -10 -10 -10 -10 -10 -10 -11 -11 -11 -11 -11 -11 -12 -12 -13 -13 -13 -13 -13 -14 -14 -15 -14 -14 -15 -16
-10 -10 -9 -9 -9 -9 -9 -9 -9 -9 -10 -10 -9 -9 -9 -10 -10 -10 -10 -10 -10 -11 -11 -11 -11 -12 -12 -12 -12 -13 -14 -14 -14 -14 -15 -14 -14 -14 -15 -15 -15 -15 -16
-10 -9 -9 -10 -9 -10 -10 -10 -9 -9 -9 -9 -10 -10 -10 -10 -10 -10 -11 -10 -11 -11 -11 -11 -12 -12 -12 -13 -13 -14 -14 -15 -15 -15 -15 -15 -15 -15 -15 -15 -16 -16 -16
-10 -10 -10 -10 -10 -10 -10 -9 -9 -9 -9 -9 -10 -10 -10 -10 -10 -10 -10 -11 -11 -11 -11 -12 -12 -12 -13 -13 -14 -14 -15 -15 -15 -16 -16 -16 -16 -16 -16 -16 -16 -16 -16
-10 -11 -11 -11 -11 -11 -11 -11 -10 -9 -9 -10 -10 -9 -9 -10 -10 -10 -10 -11 -11 -11 -12 -12 -13 -13 -13 -11 -14 -15 -15 -15 -15 -15 -16 -16 -16 -17 -17 -17 -16 -16 -17
-10 -10 -10 -11 -11 -11 -11 -11 -10 -10 -9 -9 -9 -10 -10 -10 -10 -10 -10 -10 -11 -11 -12 -12 -12 -13 -13 -15 -14 -15 -15 -15 -15 -16 -16 -17 -17 -17 -17 -17 -16 -16 -17
-11 -11 -11 -10 -10 -10 -10 -10 -10 -10 -9 -9 -10 -10 -10 -10 -10 -10 -11 -11 -11 -11 -11 -12 -13 -14 -14 -14 -14 -15 -15 -15 -16 -16 -17 -17 -17 -18 -18 -18 -18 -17 -17
-10 -11 -10 -10 -10 -10 -10 -10 -10 -10 -10 -10 -10 -10 -10 -10 -10 -10 -10 -11 -11 -11 -12 -13 -14 -14 -14 -14 -14 -15 -15 -16 -16 -17 -17 -17 -18 -18 -17 -18 -18 -19 -18
-11 -10 -10 -10 -10 -10 -10 -10 -10 -10 -10 -10 -10 -10 -10 -11 -11 -11 -11 -11 -11 -11 -12 -13 -13 -13 -14 -14 -15 -15 -15 -16 -17 -17 -17 -17 -18 -18 -18 -18 -18 -19 -19
-11 -11 -10 -10 -10 -10 -10 -10 -11 -11 -11 -11 -11 -10 -10 -11 -11 -11 -11 -11 -11 -11 -12 -13 -13 -14 -14 -15 -15 -15 -16 -16 -16 -16 -17 -18 -18 -18 -17 -18 -18 -19 -20
-11 -10 -10 -10 -10 -10 -10 -10 -11 -11 -11 -11 -10 -10 -11 -11 -11 -11 -11 -11 -11 -12 -12 -13 -13 -14 -14 -15 -15 -15 -16 -16 -16 -17 -17 -18 -18 -18 -18 -19 -19 -20 -20
-11 -11 -10 -10 -10 -10 -9 -9 -10 -11 -11 -12 -11 -11 -11 -11 -11 -11 -11 -11 -12 -13 -13 -14 -14 -15 -15 -15 -15 -16 -16 -16 -16 -16 -17 -18 -18 -18 -19 -19 -20 -20 -21
-12 -11 -11 -11 -10 -10 -10 -10 -10 -10 -11 -11 -10 -10 -11 -12 -12 -12 -12 -12 -12 -13 -14 -14 -15 -15 -15 -15 -16 -16 -16 -16 -17 -17 -17 -18 -18 -19 -19 -20 -20 -20 -22
-12 -12 -12 -11 -11 -11 -11 -10 -11 -11 -11 -10 -10 -11 -11 -12 -12 -12 -13 -13 -14 -14 -14 -15 -16 -16 -16 -16 -16 -16 -16 -17 -17 -18 -19 -19 -19 -20 -20 -21 -21 -22 -24
-12 -11 -11 -11 -11 -12 -12 -12 -11 -11 -12 -12 -12 -12 -12 -12 -12 -13 -14 -14 -15 -15 -16 -16 -16 -16 -16 -16 -17 -17 -17 -17 -18 -19 -19 -19 -20 -20 -21 -22 -23 -24 -25
-12 -12 -12 -12 -12 -11 -12 -12 -12 -13 -12 -12 -12 -12 -12 -13 -13 -14 -14 -15 -15 -15 -16 -16 -16 -16 -16 -16 -17 -17 -17 -18 -19 -19 -19 -20 -20 -21 -22 -23 -24 -24 -24
-12 -12 -13 -12 -12 -12 -13 -13 -13 -13 -13 -13 -13 -13 -13 -13 -14 -14 -15 -15 -15 -15 -16 -16 -16 -16 -17 -17 -18 -17 -18 -19 -19 -19 -20 -20 -21 -22 -23 -24 -24 -24 -24
-13 -13 -13 -13 -13 -13 -13 -13 -13 -13 -13 -13 -13 -13 -14 -14 -15 -15 -15 -15 -16 -16 -16 -16 -17 -17 -18 -18 -18 -19 -19 -19 -20 -20 -21 -21 -22 -22 -24 -24 -24 -24 -25
-12 -12 -13 -13 -14 -14 -13 -13 -13 -13 -13 -14 -14 -14 -14 -15 -15 -15 -16 -16 -16 -16 -17 -17 -18 -18 -19 -19 -19 -19 -19 -19 -20 -21 -21 -21 -22 -23 -25 -24 -24 -24 -24
-14 -14 -13 -13 -13 -13 -13 -13 -13 -14 -14 -15 -14 -15 -15 -16 -17 -16 -16 -16 -16 -17 -17 -18 -18 -19 -19 -19 -19 -19 -20 -21 -21 -21 -21 -22 -22 -23 -25 -25 -25 -24 -24
-13 -14 -14 -14 -14 -15 -15 -14 -14 -15 -16 -16 -16 -16 -16 -17 -17 -17 -17 -17 -17 -18 -18 -18 -19 -19 -19 -19 -20 -20 -21 -21 -21 -22 -22 -22 -23 -24 -25 -25 -25 -25 -24
-13 -13 -14 -15 -14 -15 -15 -15 -15 -15 -17 -17 -17 -17 -17 -18 -17 -17 -17 -18 -18 -18 -18 -19 -19 -20 -20 -20 -21 -21 -21 -22 -22 -22 -22 -23 -24 -25 -25 -25 -25 -25 -24
-14 -14 -15 -15 -15 -15 -15 -16 -15 -16 -17 -17 -17 -17 -17 -18 -18 -18 -18 -18 -19 -19 -19 -20 -20 -20 -20 -21 -22 -22 -22 -22 -22 -23 -23 -24 -25 -26 -25 -25 -25 -25 -25
-15 -15 -15 -16 -16 -16 -16 -17 -17 -17 -17 -17 -18 -18 -18 -18 -19 -19 -19 -20 -20 -20 -20 -20 -20 -21 -21 -22 -22 -22 -22 -23 -23 -23 -24 -25 -26 -26 -25 -25 -25 -25 -25
-16 -16 -16 -16 -17 -17 -18 -19 -19 -18 -18 -18 -18 -19 -19 -19 -19 -20 -20 -20 -21 -21 -21 -21 -21 -22 -22 -22 -23 -23 -23 -23 -24 -24 -25 -26 -26 -26 -25 -25 -25 -25 -25

GFSMW_500_temp_243.txt.gz
Temp
-10 -10 -10 -10 -9 -9 -10 -10 -10 -11 -10 -11 -10 -11 -11 -11 -11 -11 -11 -10 -10 -10 -10 -10 -10 -10 -10 -10 -10 -11 -10 -11 -11 -11 -11 -12 -13 -12 -12 -13 -13 -13 -14
-10 -10 -10 -10 -10 -10 -10 -10 -10 -11 -11 -11 -11 -11 -11 -10 -10 -11 -11 -10 -10 -10 -10 -10 -10 -10 -10 -10 -11 -11 -11 -12 -12 -12 -11 -13 -12 -12 -13 -13 -14 -14 -14
-10 -10 -10 -10 -10 -10 -10 -11 -11 -11 -11 -11 -11 -12 -11 -11 -11 -11 -10 -10 -11 -10 -10 -10 -10 -10 -10 -11 -11 -12 -12 -12 -13 -12 -11 -13 -13 -13 -13 -13 -14 -14 -15
-9 -10 -10 -10 -10 -10 -11 -11 -11 -11 -11 -11 -11 -11 -11 -11 -11 -11 -11 -11 -11 -10 -10 -10 -11 -11 -11 -11 -11 -12 -12 -12 -12 -13 -13 -12 -12 -13 -13 -13 -14 -14 -15
-9 -11 -10 -10 -11 -11 -11 -11 -11 -11 -11 -11 -11 -11 -11 -11 -11 -11 -11 -11 -11 -10 -11 -11 -10 -10 -11 -11 -11 -12 -12 -12 -12 -11 -12 -13 -13 -13 -13 -13 -14 -15 -15
-10 -10 -10 -11 -11 -12 -12 -12 -11 -11 -11 -11 -11 -11 -11 -11 -11 -11 -11 -11 -11 -11 -11 -11 -11 -11 -11 -11 -11 -12 -12 -13 -12 -11 -12 -12 -13 -13 -14 -14 -15 -15 -15
-10 -10 -10 -11 -12 -12 -12 -13 -12 -12 -12 -11 -11 -11 -11 -11 -11 -11 -11 -11 -11 -11 -11 -11 -11 -11 -11 -11 -12 -12 -12 -13 -12 -13 -12 -12 -12 -13 -14 -14 -15 -15 -15
-10 -11 -11 -11 -11 -12 -12 -12 -12 -12 -12 -12 -11 -11 -11 -11 -11 -11 -11 -11 -11 -11 -11 -11 -11 -11 -12 -12 -12 -11 -12 -12 -12 -12 -13 -13 -13 -14 -14 -14 -15 -14 -15
-11 -11 -11 -12 -12 -12 -12 -12 -12 -12 -12 -13 -12 -12 -12 -12 -12 -12 -11 -11 -11 -11 -11 -11 -12 -12 -12 -12 -12 -12 -12 -11 -11 -12 -12 -14 -14 -14 -14 -15 -15 -16 -15
-12 -12 -12 -12 -13 -12 -13 -12 -13 -13 -13 -12 -12 -12 -12 -12 -12 -12 -12 -11 -12 -12 -12 -12 -12 -12 -12 -12 -12 -12 -11 -11 -12 -12 -13 -13 -14 -14 -15 -16 -17 -16 -16
-12 -12 -12 -12 -12 -12 -12 -12 -12 -12 -13 -12 -12 -12 -12 -12 -12 -12 -11 -11 -12 -12 -12 -12 -12 -12 -12 -12 -12 -11 -12 -12 -12 -13 -13 -14 -14 -15 -16 -17 -17 -17 -17
-12 -12 -12 -12 -11 -11 -11 -11 -11 -12 -12 -12 -12 -12 -12 -12 -12 -12 -12 -12 -12 -12 -12 -12 -12 -12 -12 -12 -12 -12 -12 -13 -13 -13 -13 -14 -15 -16 -17 -17 -17 -17 -18
-11 -12 -12 -12 -11 -11 -11 -11 -12 -11 -12 -12 -12 -12 -13 -13 -13 -12 -12 -12 -12 -12 -12 -12 -12 -12 -12 -12 -12 -12 -13 -13 -13 -14 -14 -15 -16 -17 -17 -17 -17 -17 -18
-12 -12 -11 -12 -12 -11 -11 -11 -11 -12 -12 -13 -13 -13 -13 -13 -13 -13 -13 -12 -13 -12 -12 -12 -12 -13 -13 -13 -13 -13 -13 -14 -14 -15 -15 -16 -17 -17 -17 -18 -18 -18 -19
-12 -11 -11 -11 -11 -11 -11 -11 -12 -12 -13 -13 -13 -13 -14 -14 -14 -14 -13 -13 -13 -13 -13 -13 -13 -13 -13 -13 -13 -13 -14 -14 -15 -15 -16 -16 -17 -17 -17 -18 -18 -19 -20
-13 -12 -12 -11 -11 -11 -12 -12 -12 -13 -13 -12 -13 -13 -13 -13 -13 -13 -13 -13 -13 -13 -13 -13 -12 -12 -13 -13 -14 -14 -15 -15 -16 -16 -16 -17 -17 -18 -18 -19 -19 -20 -20
-13 -13 -13 -13 -13 -12 -13 -13 -13 -13 -13 -13 -13 -13 -13 -13 -13 -12 -12 -12 -12 -13 -13 -13 -13 -14 -14 -14 -14 -15 -16 -16 -17 -17 -17 -17 -18 -18 -19 -19 -19 -20 -20
-13 -12 -13 -13 -14 -14 -13 -14 -13 -13 -13 -13 -13 -13 -13 -13 -13 -13 -13 -13 -13 -13 -13 -14 -15 -15 -15 -15 -15 -16 -17 -17 -17 -18 -17 -18 -19 -19 -19 -19 -20 -20 -20
-13 -13 -13 -13 -14 -14 -14 -14 -14 -14 -14 -14 -13 -13 -13 -13 -13 -13 -13 -13 -14 -14 -15 -15 -15 -15 -16 -16 -16 -17 -18 -18 -18 -18 -18 -19 -19 -19 -19 -20 -21 -21 -21
-14 -14 -14 -14 -14 -14 -14 -14 -14 -13 -12 -13 -13 -13 -13 -13 -13 -14 -14 -14 -15 -15 -15 -15 -16 -16 -16 -17 -17 -17 -18 -18 -18 -18 -19 -19 -19 -19 -19 -20 -21 -21 -21
-14 -14 -14 -14 -14 -14 -14 -13 -13 -13 -13 -13 -13 -14 -14 -14 -14 -14 -14 -15 -15 -16 -16 -16 -16 -17 -16 -17 -17 -17 -18 -18 -19 -19 -19 -19 -19 -20 -21 -21 -21 -21 -22
-14 -14 -14 -14 -14 -14 -13 -14 -14 -14 -14 -14 -14 -14 -15 -15 -15 -15 -15 -15 -16 -16 -16 -17 -17 -18 -18 -18 -18 -18 -18 -18 -19 -19 -20 -20 -20 -20 -21 -21 -21 -22 -22
-15 -14 -15 -15 -15 -14 -14 -14 -15 -15 -15 -15 -15 -14 -15 -15 -15 -15 -16 -16 -16 -16 -17 -16 -17 -18 -18 -18 -18 -19 -19 -19 -19 -20 -20 -20 -21 -21 -22 -22 -22 -22 -22
-16 -16 -16 -16 -15 -15 -15 -15 -15 -15 -15 -15 -15 -15 -15 -15 -15 -16 -17 -18 -18 -18 -17 -18 -19 -19 -19 -20 -20 -19 -20 -20 -20 -20 -21 -21 -21 -22 -22 -23 -22 -22 -23
-16 -16 -15 -16 -15 -15 -15 -15 -15 -15 -15 -15 -15 -15 -15 -15 -16 -17 -18 -19 -20 -20 -21 -21 -20 -20 -20 -20 -20 -20 -21 -21 -21 -22 -22 -22 -22 -23 -23 -23 -23 -23 -24
-16 -17 -16 -16 -16 -16 -15 -16 -15 -15 -15 -15 -15 -16 -16 -18 -19 -20 -20 -21 -22 -21 -22 -22 -21 -21 -22 -22 -21 -22 -21 -22 -22 -22 -22 -22 -23 -23 -24 -23 -24 -24 -25

GFSMW_500_temp_246.txt.gz
Temp
-10 -9 -10 -10 -10 -10 -10 -10 -10 -11 -11 -10 -10 -11 -11 -11 -11 -11 -11 -11 -11 -11 -11 -11 -11 -11 -11 -11 -11 -10 -11 -11 -11 -11 -12 -12 -12 -12 -12 -11 -11 -12 -13
-10 -10 -10 -10 -10 -10 -10 -11 -11 -11 -11 -11 -11 -11 -11 -11 -12 -12 -11 -11 -11 -11 -11 -11 -11 -11 -11 -11 -11 -11 -11 -11 -12 -12 -12 -12 -13 -12 -13 -11 -13 -13 -14
-9 -10 -10 -10 -10 -10 -10 -11 -11 -11 -11 -12 -12 -12 -12 -12 -12 -12 -12 -12 -11 -11 -11 -11 -11 -11 -11 -11 -11 -11 -11 -11 -12 -13 -13 -12 -13 -12 -13 -13 -13 -13 -13
-9 -10 -10 -11 -10 -10 -11 -11 -12 -12 -12 -12 -12 -12 -13 -12 -12 -12 -12 -12 -12 -12 -11 -11 -11 -11 -11 -11 -11 -11 -12 -12 -12 -13 -12 -12 -12 -11 -12 -12 -13 -13 -12
-10 -10 -10 -12 -11 -11 -11 -11 -11 -12 -12 -13 -13 -13 -12 -12 -12 -12 -12 -12 -12 -12 -11 -11 -11 -11 -11 -11 -11 -12 -12 -12 -12 -11 -12 -12 -12 -12 -12 -12 -13 -12 -14
-11 -11 -11 -11 -12 -12 -12 -12 -12 -12 -12 -12 -12 -12 -12 -12 -12 -12 -11 -11 -12 -11 -12 -11 -11 -11 -11 -12 -12 -11 -12 -12 -12 -11 -11 -11 -13 -12 -12 -13 -12 -13 -14
-11 -12 -12 -12 -12 -12 -12 -12 -12 -12 -12 -12 -12 -12 -12 -12 -11 -11 -11 -11 -11 -12 -12 -12 -12 -12 -12 -12 -12 -12 -12 -12 -12 -12 -11 -12 -12 -12 -13 -13 -12 -13 -13
-11 -11 -12 -12 -12 -13 -13 -13 -12 -12 -12 -12 -12 -12 -11 -11 -11 -11 -11 -11 -12 -12 -12 -12 -12 -12 -12 -12 -12 -12 -12 -12 -12 -12 -12 -12 -13 -12 -14 -14 -13 -13 -14
-11 -11 -11 -11 -11 -11 -11 -11 -12 -12 -12 -12 -11 -11 -11 -11 -11 -11 -11 -12 -12 -12 -11 -11 -11 -12 -12 -12 -12 -12 -12 -12 -12 -12 -13 -13 -13 -13 -14 -14 -13 -13 -14
-12 -12 -11 -11 -11 -11 -11 -11 -11 -12 -12 -12 -12 -12 -11 -12 -12 -11 -12 -12 -12 -12 -11 -12 -12 -12 -12 -12 -12 -12 -12 -12 -13 -12 -12 -13 -13 -13 -13 -13 -14 -14 -14
-12 -12 -12 -12 -12 -12 -12 -12 -12 -12 -11 -12 -12 -13 -13 -13 -12 -12 -12 -12 -12 -12 -12 -12 -12 -12 -12 -12 -12 -12 -13 -13 -13 -13 -12 -12 -13 -13 -14 -14 -14 -15 -15
-12 -12 -12 -12 -12 -12 -12 -12 -12 -11 -11 -12 -12 -12 -12 -13 -13 -13 -13 -12 -13 -13 -12 -12 -12 -12 -12 -13 -13 -13 -13 -13 -13 -13 -13 -13 -13 -13 -14 -15 -15 -16 -16
-12 -12 -12 -12 -12 -12 -12 -12 -12 -12 -12 -12 -12 -12 -13 -13 -13 -14 -14 -14 -13 -13 -13 -13 -13 -13 -13 -13 -13 -13 -13 -13 -12 -12 -12 -13 -13 -14 -15 -16 -16 -16 -16
-12 -12 -12 -12 -12 -12 -11 -11 -12 -12 -12 -12 -12 -12 -13 -13 -13 -13 -13 -13 -13 -13 -13 -13 -13 -13 -13 -13 -13 -13 -13 -13 -13 -13 -13 -14 -14 -14 -16 -16 -16 -16 -16
-13 -14 -13 -13 -12 -12 -12 -12 -11 -12 -12 -13 -12 -13 -13 -13 -13 -13 -14 -13 -13 -14 -14 -13 -14 -14 -14 -14 -14 -14 -14 -14 -14 -14 -14 -14 -15 -15 -16 -16 -16 -17 -17
-14 -14 -14 -13 -13 -13 -12 -12 -12 -12 -12 -13 -13 -13 -13 -13 -13 -14 -14 -14 -14 -13 -14 -14 -14 -14 -14 -14 -14 -14 -14 -14 -14 -15 -15 -16 -16 -16 -17 -17 -17 -17 -18
-14 -14 -14 -14 -13 -13 -13 -12 -12 -13 -13 -13 -14 -14 -14 -14 -14 -14 -14 -14 -14 -14 -14 -14 -14 -14 -14 -14 -14 -14 -14 -14 -15 -16 -16 -16 -17 -17 -17 -17 -17 -18 -18
-15 -14 -14 -14 -14 -14 -14 -14 -14 -14 -14 -14 -14 -14 -14 -14 -14 -14 -14 -14 -14 -14 -14 -14 -13 -14 -14 -14 -15 -15 -15 -15 -15 -16 -16 -16 -17 -17 -18 -18 -18 -18 -19
-15 -14 -14 -14 -14 -14 -15 -15 -15 -15 -14 -14 -14 -15 -15 -15 -15 -15 -15 -15 -14 -14 -14 -14 -14 -14 -14 -14 -14 -15 -15 -16 -16 -16 -17 -17 -17 -17 -18 -18 -19 -18 -19
-14 -14 -14 -14 -14 -15 -15 -15 -15 -15 -15 -15 -15 -15 -15 -14 -14 -14 -13 -13 -14 -14 -14 -14 -15 -15 -15 -15 -15 -16 -16 -17 -16 -16 -16 -16 -16 -17 -18 -18 -19 -19 -19
-15 -15 -14 -14 -14 -14 -15 -15 -15 -15 -15 -14 -15 -14 -14 -14 -14 -14 -14 -15 -15 -15 -15 -15 -15 -15 -16 -16 -17 -17 -16 -17 -17 -18 -17 -17 -17 -18 -19 -19 -19 -19 -20
-14 -14 -14 -15 -14 -14 -14 -15 -15 -15 -15 -15 -15 -15 -15 -15 -15 -15 -15 -15 -15 -15 -15 -15 -15 -16 -17 -17 -18 -19 -18 -18 -19 -18 -18 -19 -18 -19 -19 -19 -20 -20 -21
-15 -15 -15 -15 -14 -14 -15 -15 -15 -15 -15 -15 -15 -15 -15 -15 -15 -15 -15 -15 -14 -14 -14 -15 -16 -17 -18 -19 -19 -19 -20 -20 -19 -19 -19 -19 -19 -20 -20 -20 -21 -21 -22
-15 -16 -16 -16 -16 -15 -15 -15 -15 -16 -15 -15 -15 -15 -15 -15 -15 -15 -14 -14 -14 -14 -15 -17 -18 -19 -20 -21 -19 -20 -20 -19 -19 -20 -21 -21 -20 -21 -22 -22 -22 -22 -22
-16 -16 -16 -16 -16 -17 -16 -16 -16 -16 -16 -15 -15 -15 -15 -15 -14 -14 -14 -15 -15 -16 -18 -20 -21 -23 -22 -22 -22 -22 -21 -21 -21 -22 -22 -22 -23 -23 -23 -22 -22 -23 -23
-16 -15 -15 -15 -15 -15 -15 -16 -15 -15 -15 -15 -15 -14 -14 -15 -15 -15 -16 -17 -19 -21 -22 -23 -25 -24 -24 -23 -23 -23 -23 -23 -23 -23 -24 -24 -24 -24 -23 -23 -23 -23 -24